Zurück zum Katalog

STARLINK-31295

AktivKommunikationVLEO
NORAD 59095·PAYLOAD·🇺🇸 United States

Gestartet Feb 29, 2024 von Cape Canaveral Space Force Station

Loading…

Nächste Überflüge (nächste 24 Stunden)

TLE

AktuellSource: CelesTrak SupGP

Epoche: Sep 14, 2026, 22:21 UTC

1 59095C 24041X   26257.93173611 -.00014157  00000+0 -51280-3 0  2577
2 59095  43.0007 321.9383 0001585 272.9402  96.7437 15.27582905    19

Verfolge STARLINK-31295 in Echtzeit mit AllMySat

Download on the App Store